Tracking 30995 objects as of 5-Jul-2025
HD Live streaming from Space Station
objects crossing your sky now

PEGASUS DEB

Track PEGASUS DEB now!
10-day predictions


NORAD ID: 39927
Int'l Code: 1994-029AGA
Perigee: 466.8 km
Apogee: 511.6 km
Inclination: 81.8 °
Period: 94.2 minutes
Semi major axis: 6860 km
RCS: 0.0109 m2 (small)
Launch date: May 19, 1994
Source: United States (US)
Launch site: AIR FORCE WESTERN TEST RANGE (AFWTR)

Note: This is SATELLITE DEBRIS
Your satellite tracking list
Your tracking list is empty




NASA's NSSDC Master Catalog

Two Line Element Set (TLE):
1 39927U 94029AGA 25182.83107819  .00015034  00000-0  54195-3 0  9999
2 39927  81.8049 221.7148 0032611 337.9189  22.0641 15.27906794603183
Source of the keplerian elements: AFSPC